Regional Weather Roundup
Issued by NWS

Home | Current Version | Previous Version | Text Only | Print | Product List | Glossary On
Versions: 1 2 3 4 5 6 7 8 9 10 11 12 13 14 15 16 17 18 19 20 21 22 23 24 25 26 27 28 29 30 31 32 33 34 35 36 37 38 39 40 41 42 43 44 45 46 47 48 49 50
000
ASUS43 KMKX 250921
RWRWI

WISCONSIN REGIONAL WEATHER ROUNDUP
NATIONAL WEATHER SERVICE MILWAUKEE/SULLIVAN WI
400 AM CDT WED MAY 25 2016

NOTE: "FAIR" INDICATES FEW OR NO CLOUDS BELOW 12,000 FEET WITH NO
SIGNIFICANT WEATHER AND/OR OBSTRUCTIONS TO VISIBILITY.

WIZ001-002-006>008-014>016-023>028-251000-
NORTHWEST WISCONSIN

CITY           SKY/WX    TMP DP  RH WIND       PRES   REMARKS
SUPERIOR ARPT  FOG       46  46 100 NE9       30.03F VSB 1/2
ASHLAND        FOG       49  49 100 N3        30.03S VSB 1/4
HAYWARD        CLOUDY    52  50  93 NE6       30.00F
SIREN          CLOUDY    58  57  98 E5        29.98S FOG
CUMBERLAND     CLOUDY    57  55  94 CALM      29.97S
RICE LAKE      CLOUDY    59  56  91 NE3       29.98F
CHETEK         CLOUDY    57  57  99 E3        29.96F
LADYSMITH      CLOUDY    57  56  95 NE7       30.00F
EAU CLAIRE     CLOUDY    57  55  93 NE3       29.95F
MENOMONIE      CLOUDY    57  54  92 CALM      29.94F
NEW RICHMOND   CLOUDY    60  54  78 E5        29.94F
OSCEOLA        PTCLDY    62  58  86 E3        29.96F
$$

WIZ003>005-009-010-017-018-251000-
NORTH CENTRAL WISCONSIN

CITY           SKY/WX    TMP DP  RH WIND       PRES   REMARKS
MANITOWISH WTR NOT AVBL
ARBOR VITAE    FOG       57  56  96 CALM      30.03R VSB 1/4
WOODRUFF       FOG       57  56  96 CALM      30.03R VSB 1/4
RHINELANDER    FOG       54  53  97 CALM      30.03R VSB 1/4
EAGLE RIVER    FOG       58  58 100 CALM      30.03R VSB 1/2
LAND O LAKES   CLOUDY    57  57 100 CALM      30.05R FOG
PHILLIPS       FOG       50  50 100 CALM      30.00F VSB 1/4
TOMAHAWK       FOG       49  48  97 CALM      30.02S VSB 1/4
MEDFORD        CLOUDY    55  55 100 E6        29.99F
MERRILL        FOG       50  50 100 CALM      30.01S VSB 1/2
$$

WIZ029-030-035-036-043>047-251000-
CENTRAL WISCONSIN

CITY           SKY/WX    TMP DP  RH WIND       PRES   REMARKS
WAUSAU         CLEAR     59  55  87 CALM      29.98S
MOSINEE        CLOUDY    59  55  88 N5        30.01S
MARSHFIELD     CLOUDY    60  56  86 CALM      29.98S
STEVENS POINT  CLOUDY    52  50  95 CALM      29.99F
WAUPACA        CLEAR     57  56  97 CALM      29.98S
WAUTOMA        CLEAR     56  55  97 CALM      29.98
WISC RAPIDS    CLEAR     55  53  93 CALM      29.99S FOG
CAMP DOUGLAS   CLOUDY    48  48 100 E5        29.96F FOG
$$

WIZ011>013-019>022-031-037>040-048>050-251000-
NORTHEAST WISCONSIN

CITY           SKY/WX    TMP DP  RH WIND       PRES   REMARKS
ANTIGO         CLEAR     50  50  99 NE3       30.02R FOG
SHAWANO        PTCLDY    61  58  91 E8        30.01R
OCONTO         CLOUDY   N/A N/A N/A NE8       30.00S
STURGEON BAY   NOT AVBL
GREEN BAY      CLOUDY    60  57  89 NE13      29.99R
MANITOWOC      CLEAR     56  55  97 CALM      29.98R
APPLETON       CLEAR     61  52  72 CALM      29.97S
CLINTONVILLE   CLEAR     55  54  94 NE5       30.00R
OSHKOSH        CLEAR     60  56  86 CALM      29.98R
$$

WIZ032>034-041-042-053>061-251000-
SOUTHWEST WISCONSIN

CITY           SKY/WX    TMP DP  RH WIND       PRES   REMARKS
LA CROSSE      CLOUDY    61  57  87 SE9       29.93F
SPARTA         PTCLDY    49  49  99 CALM      29.96F
VIROQUA        CLOUDY    64  58  80 E5        29.96F
BOSCOBEL       CLOUDY    59  58  96 NE3       29.94F FOG
PRAIRIE DU CHI CLOUDY    61  59  92 E3        29.91F
PLATTEVILLE    CLEAR     66  62  86 S3        29.94F
$$

WIZ056-057-062-063-064-067-068-251000-
SOUTH CENTRAL WISCONSIN

CITY           SKY/WX    TMP DP  RH WIND       PRES   REMARKS
REEDSBURG      CLEAR     56  56 100 CALM      29.97F
BARABOO/DELLS  CLEAR     56  54  91 CALM      29.97F
LONE ROCK      CLOUDY    58  56  93 CALM      29.96F
MINERAL POINT  PTCLDY    66  59  77 E6        29.94F
MADISON        CLEAR     61  59  93 CALM      29.96F
MIDDLETON      MOCLDY    60  59  97 CALM      29.97S
WATERTOWN      CLEAR     61  61 100 CALM      29.96F
MONROE         CLEAR     64  59  82 SW7       29.96S
JANESVILLE     CLEAR     66  61  82 S5        29.95F
$$

WIZ051-052-058>065-066-070>072-251000-
SOUTHEAST WISCONSIN

CITY           SKY/WX    TMP DP  RH WIND       PRES   REMARKS
MILWAUKEE      PTCLDY    63  54  72 CALM      29.97S
WAUKESHA       CLEAR     59  57  94 CALM      29.98F
MILWAUKEE/TIMM CLEAR     61  57  88 CALM      29.98S FOG
RACINE         CLEAR     69  58  67 SW8       29.98F
BURLINGTON     CLEAR     60  57  89 SW5       29.97F
KENOSHA        CLEAR     68  59  73 SW8       29.98S
FOND DU LAC    CLEAR     57  55  93 CALM      29.98R
SHEBOYGAN      PTCLDY    53  52  96 SW5       29.97F FOG
WEST BEND      PTCLDY    55  55 100 CALM      29.98F
JUNEAU         CLOUDY    61  58  91 CALM      29.99F
$$

LSZ147-162-251000-
LAKE SUPERIOR

STATION/POSITION TIME  TEMP    WIND        PRES    WAVE
                       AIR SEA DIR/SP/G            HT/PER
                 (UTC) (F)     (DEG/KT/KT) (MB)    (FT/S)
W MID LAKE BUOY  0850   39 38   50/  8/  8 1018.3R   1/ 4
DEVILS ISLAND    0900   44      30/ 10/ 11 1018.0S
SAXON HARBOR     0800   46     310/  2/  4 1016.3R
$$

LMZ867-665-643>646-251000-
LAKE MICHIGAN

STATION/POSITION TIME  TEMP    WIND        PRES    WAVE
                       AIR SEA DIR/SP/G            HT/PER
                 (UTC) (F)     (DEG/KT/KT) (MB)    (FT/S)
CHAMBERS ISLAND  0800   55      20/ 12/ 15 1015.9R
N MID LAKE BUOY  0850   49 44   30/  6/  6 1016.0R   1/ 5
NORTHPORT PIER   0800   54     350/  7/  8 1015.9R
SISTER BAY       0835   54      20/  9/ 12   N/A
ALGOMA LAKESHORE 0832           70/ 10/ 12   N/A
KEWAUNEE LAKESHO 0800   51      20/  8/ 11 1014.3R
SHEBOYGAN LAKESH 0900   62     200/  2/  3 1015.3R
PORT WASHINGTON  0800   62     250/  2/  4 1015.6
S MID LAKE BUOY  0850   54 49  170/ 10/ 10 1015.0F   0
KENOSHA   LAKESH 0900   69     220/  7/  9 1014.9S
$$

TC  - TEMPERATURE IN CELSIUS
VSB - VISIBILITY IN STATUTE MILES
WCI - WIND CHILL INDEX
HX  - HEAT INDEX




USA.gov is the U.S. government's official web portal to all federal, state and local government web resources and services.